534  
ASUS41 KRLX 141410  
RWRRLX  
REGIONAL WEATHER ROUNDUP  
NATIONAL WEATHER SERVICE CHARLESTON WV  
1000 AM EDT TUE AUG 14 2018  
 
NOTE: "FAIR" INDICATES FEW OR NO CLOUDS BELOW 12,000 FEET WITH NO  
SIGNIFICANT WEATHER AND/OR S TO VISIBILITY
.  
 
WVZ003-141500-  
NORTHERN PANHANDLE OF WEST VIRGINIA  
 
CITY SKY/WX TMP DP RH WIND PRES REMARKS
 
WHEELING CLOUDY 68 64 87 W3 30.04R  

 
 
WVZ009-141500-  
NORTHWEST WEST VIRGINIA  
 
CITY SKY/WX TMP DP RH WIND PRES REMARKS
 
PARKERSBURG PTSUNNY 65 63 93 S8 30.09R FOG  

 
 
WVZ006-141500-  
WESTERN WEST VIRGINIA  
 
CITY SKY/WX TMP DP RH WIND PRES REMARKS
 
HUNTINGTON FAIR 74 67 78 CALM 30.05R  

 
 
WVZ015-141500-  
WEST CENTRAL WEST VIRGINIA  
 
CITY SKY/WX TMP DP RH WIND PRES REMARKS
 
CHARLESTON FAIR 70 66 87 CALM 30.06S  

 
 
WVZ022-031-141500-  
NORTH CENTRAL WEST VIRGINIA  
 
CITY SKY/WX TMP DP RH WIND PRES REMARKS
 
MORGANTOWN CLOUDY 65 63 93 VRB3 30.06R  
CLARKSBURG PTSUNNY 69 62 78 CALM 30.05S  
BUCKHANNON FAIR 70 63 78 SW5 30.07S  

 
 
WVZ025-035-042-045-141500-  
SOUTHERN WEST VIRGINIA  
 
CITY SKY/WX TMP DP RH WIND PRES REMARKS
 
BECKLEY FAIR 70 62 76 W7 30.12S  
LOGAN FAIR 70 70 100 CALM 30.09S  
PINEVILLE CLOUDY 66 65 96 MISG 30.15S  
BLUEFIELD PTSUNNY 66 63 90 W6 30.15R  
LEWISBURG PTSUNNY 60 60 99 CALM 30.11S  

 
 
WVZ047-141500-  
NORTHERN MOUNTAINS OF WEST VIRGINIA  
 
CITY SKY/WX TMP DP RH WIND PRES REMARKS
 
ELKINS FAIR 64 59 83 VRB3 30.09S  

 
 
WVZ052-141500-  
EASTERN PANHANDLE OF WEST VIRGINIA  
 
CITY SKY/WX TMP DP RH WIND PRES REMARKS
 
MARTINSBURG PTSUNNY 72 62 71 S6 29.97S  
PETERSBURG FAIR 67 63 86 CALM 30.02S  

 
 
SOUTHEAST OHIO/NORTHEAST KENTUCKY  
 
CITY SKY/WX TMP DP RH WIND PRES REMARKS
 
ATHENS FAIR 67 67 100 CALM 30.04F  
ASHLAND NOT AVBL  

 
 
 
CLICK HERE TO GO TO PREVIOUS BULLETINS.

The Nexlab WV Page
The Nexlab OH Page
The Nexlab KY Page
The Nexlab VA Page Main Text Page